Home   Weather   Ilmenau   Past weeks

Flag for Germany Past Weather in Ilmenau, Thuringia, Germany — Yesterday and Last 2 Weeks

Now
39 °F

Sunny.


Feels Like: 36 °F
Forecast: 35 / 47 °F
Wind: 5 mph from Southwest

Location: Erfurt-Bindersleben

Current Time: Apr 27, 2017 at 9:36:03 am

Latest Report: Apr 27, 2017 at 8:50 am


Visibility: 10 mi

Pressure: 29.95 "Hg

Humidity: 81%

Dew Point: 34 °F

Location of IlmenauLocation

Past Weather in Ilmenau — Graph

°F

Ilmenau Temperature Yesterday

Maximum temperature yesterday: 48 °F (at 5:50 pm)
Minimum temperature yesterday: 36 °F (at 1:50 am)
Average temperature yesterday: 41 °F

High & Low Weather Summary for the Past Weeks

 TemperatureHumidityPressure
High57 °F (Apr 24, 3:20 pm)100% (Apr 15, 5:20 pm)30.57 "Hg (Apr 15, 5:20 pm)
Low27 °F (Apr 20, 5:50 am)39% (Apr 24, 5:20 pm)29.62 "Hg (Apr 25, 4:20 am)
Average42 °F76%30.06 "Hg
* Reported Apr 12 8:20 am — Apr 27 8:20 am, Ilmenau, Weather by CustomWeather, © 2017

Note: Actual official high and low records may vary slightly from our data, if they occured in-between our weather recording intervals... More about our weather records

Advertising

Ilmenau Weather History for the Previous 24 Hours

Scroll right to see more
 ConditionsComfort  
Time TempWeatherWind HumidityBarometerVisibility
8:20 am
Thu, Apr 27
37 °FBroken clouds.3 mph87%29.95 "HgN/A
7:50 am36 °FPartly sunny.3 mph87%29.92 "HgN/A
6:50 am32 °FSunny.6 mph93%29.92 "Hg10 mi
6:20 am30 °FSunny.7 mph93%29.92 "Hg10 mi
5:50 am30 °FClear.7 mph93%29.92 "Hg10 mi
5:20 am30 °FClear.7 mph93%29.89 "Hg10 mi
4:50 am30 °FClear.7 mph93%29.89 "Hg10 mi
3:50 am32 °FClear.6 mph87%29.89 "Hg10 mi
3:20 am32 °FClear.7 mph87%29.89 "Hg10 mi
2:50 am32 °FClear.7 mph87%29.89 "Hg10 mi
2:20 am32 °FClear.8 mph87%29.89 "Hg10 mi
1:50 am34 °FClear.7 mph87%29.89 "Hg10 mi
12:50 am34 °FClear.8 mph87%29.89 "Hg10 mi
11:50 pm
Wed, Apr 26
37 °FClear.8 mph81%29.89 "Hg10 mi
11:20 pm36 °FClear.8 mph81%29.89 "Hg10 mi
10:50 pm39 °FClear.7 mph75%29.89 "Hg10 mi
10:20 pm39 °FClear.7 mph75%29.89 "Hg10 mi
9:50 pm39 °FClear.7 mph75%29.89 "Hg10 mi
9:20 pm41 °FClear.6 mph70%29.89 "Hg10 mi
8:50 pm43 °FClear.6 mph57%29.86 "Hg10 mi
8:20 pm45 °FSunny.3 mph49%29.86 "Hg10 mi
7:50 pm46 °FPassing clouds.6 mph53%29.86 "HgN/A
7:20 pm46 °FSunny.6 mph53%29.86 "Hg10 mi
6:50 pm46 °FPassing clouds.6 mph53%29.86 "HgN/A
6:20 pm46 °FSunny.2 mph46%29.86 "Hg10 mi
5:50 pm48 °FSunny.2 mph46%29.86 "Hg10 mi
5:20 pm46 °FSunny.2 mph46%29.86 "Hg10 mi
4:50 pm46 °FPassing clouds.3 mph46%29.86 "HgN/A
4:20 pm46 °FSunny.2 mph50%29.86 "Hg10 mi
3:50 pm46 °FSunny.1 mph46%29.86 "Hg10 mi
3:20 pm46 °FSunny.1 mph53%29.86 "Hg10 mi
2:50 pm46 °FSunny.2 mph46%29.86 "Hg10 mi
2:20 pm46 °FBroken clouds.3 mph50%29.86 "HgN/A
1:50 pm45 °FBroken clouds.5 mph53%29.86 "HgN/A
1:20 pm45 °FBroken clouds.6 mph57%29.86 "HgN/A
12:50 pm46 °FBroken clouds.5 mph53%29.86 "HgN/A
11:50 am45 °FBroken clouds.2 mph57%29.83 "HgN/A
11:20 am45 °FScattered clouds.5 mph61%29.86 "HgN/A
10:50 am45 °FScattered clouds.5 mph57%29.83 "HgN/A
10:20 am45 °FBroken clouds.5 mph61%29.83 "HgN/A
9:50 am43 °FBroken clouds.5 mph66%29.83 "HgN/A
9:20 am41 °FBroken clouds.2 mph76%29.83 "HgN/A
Weather by CustomWeather, © 2017

See weather overviewHow to use our weather pages